QSAT-EOS
1 40301U 14070D 21063.80147993 .00003164 00000-0 11713-3 0 9993
2 40301 97.2644 138.0670 0023855 349.4393 136.0858 15.28137502351672
FIREBIRD FU3
1 40377U 15003B 21063.63094954 .00006845 00000-0 25263-3 0 9996
2 40377 99.0830 183.0885 0120090 163.7459 196.7677 15.21626980336850
FIREBIRD FU4
1 40378U 15003C 21063.54497841 .00008076 00000-0 29671-3 0 9994
2 40378 99.0836 183.1088 0120177 163.8850 196.6257 15.21670999336846
GRIFEX
1 40379U 15003D 21063.51733370 .00005095 00000-0 20864-3 0 9995
2 40379 99.0816 173.2752 0129825 194.1534 165.6044 15.17484181336265
NO-84
1 40654U 15025D 21062.37175693 .00037574 00000-0 31767-3 0 2080
2 40654 54.9820 180.1345 0093241 143.1351 217.6660 15.63816972209386
DEORBITSAIL
1 40719U 15032E 21063.42217521 .00000629 00000-0 95570-4 0 9995
2 40719 97.8422 311.2377 0017683 87.0983 273.2251 14.77256025304478
NUDT-PHONESAT
1 40900U 15049B 21063.79439787 .00004058 00000-0 16208-3 0 9995
2 40900 97.4252 78.6249 0013398 141.4063 304.1063 15.25630545302865
XW-2A
1 40903U 15049E 21063.83559456 .00004235 00000-0 92922-4 0 9994
2 40903 97.2513 118.6047 0013667 44.0431 76.2021 15.44523984306643
XW-2C
1 40906U 15049H 21063.86000095 .00001162 00000-0 62920-4 0 9991
2 40906 97.4852 67.5398 0014484 183.7772 294.3436 15.16522061301712
XW-2D
1 40907U 15049J 21063.81053534 .00001240 00000-0 66384-4 0 9998
2 40907 97.4843 67.2524 0013847 180.1491 303.5563 15.16812690301738
LILACSAT-2
1 40908U 15049K 21063.82431775 .00000384 00000-0 24554-4 0 9998
2 40908 97.5019 65.2590 0015262 195.6090 286.5200 15.14307859301399
XW-2E
1 40909U 15049L 21063.73205510 .00001843 00000-0 90730-4 0 9995
2 40909 97.4667 71.0473 0013659 168.4683 307.7365 15.19167322302031
XW-2F
1 40910U 15049M 21063.82611226 .00001603 00000-0 80481-4 0 9998
2 40910 97.4722 70.2166 0014849 167.7630 271.3074 15.18670169301849
XW-2B
1 40911U 15049N 21063.80773345 .00001289 00000-0 69040-4 0 9996
2 40911 97.4838 67.9432 0013501 181.8270 302.2049 15.16732987301625
DCBB
1 40912U 15049P 21063.80735014 .00002081 00000-0 96310-4 0 9999
2 40912 97.4472 74.5368 0015592 143.3990 341.7673 15.21160036302286
TW-1A
1 40928U 15051D 21063.82423924 .00006496 00000-0 14077-3 0 9998
2 40928 97.0872 91.2606 0008241 326.5156 119.3665 15.44723577305537
IO-86
1 40931U 15052B 21060.14136084 .00000538 00000-0 -14302-4 0 9997
2 40931 6.0030 304.8434 0014585 308.6709 51.1537 14.76663273293269
LQSat
1 40958U 15057A 21063.80852961 .00000046 00000-0 14577-4 0 9993
2 40958 97.8173 124.1951 0018960 37.2007 323.0502 14.73158757290834
ATHENOXAT-1
1 41168U 15077C 21062.04760249 .00003200 00000-0 12868-3 0 9996
2 41168 14.9933 323.0931 0012737 120.5432 358.0748 15.15257573288610
ChubuSat-2
1 41338U 16012B 21063.49512448 .00000568 00000-0 37244-4 0 9991
2 41338 31.0030 133.2843 0013591 173.5958 186.4852 15.00455437276822
ChubuSat-3
1 41339U 16012C 21063.79470475 .00000511 00000-0 32688-4 0 9993
2 41339 31.0117 128.7172 0013111 184.6308 175.4200 15.00609536276863
Horyu-4
1 41340U 16012D 21063.47455319 .00000884 00000-0 59551-4 0 9991
2 41340 31.0051 115.5951 0013732 210.5175 149.4662 15.01767100276991
OUFTI-1
1 41458U 16025C 21063.30300047 .00003488 00000-0 17146-3 0 9990
2 41458 98.1261 194.2080 0160911 54.6134 307.0004 15.08090445266628
e-st@r-II
1 41459U 16025D 21063.82887529 .00003153 00000-0 15714-3 0 9991
2 41459 98.1243 193.9413 0162260 55.6758 305.9731 15.07562141266650
AAUSAT4
1 41460U 16025E 21063.66468887 .00003285 00000-0 15708-3 0 9996
2 41460 98.1243 197.1376 0149973 41.6087 319.6441 15.10372791266892
LO-87
1 41557U 16033B 21063.83780429 .00002614 00000-0 95460-4 0 9999
2 41557 97.3932 158.4152 0011610 241.7218 236.9194 15.28966860265544
NuSat2
1 41558U 16033C 21063.85074884 .00002939 00000-0 10045-3 0 9998
2 41558 97.4022 161.7756 0010698 234.7974 243.6657 15.31052353265714
Lapan A3
1 41603U 16040E 21063.85299678 .00000362 00000-0 19844-4 0 9992
2 41603 97.2717 114.6692 0013727 17.8085 68.6758 15.19972314260692
Swayam
1 41607U 16040J 21063.42126026 .00003585 00000-0 14491-3 0 9997
2 41607 97.2822 122.2777 0012404 357.6998 2.4181 15.25301126261030
Pratham
1 41783U 16059A 21063.42147845 .00000088 00000-0 26095-4 0 9993
2 41783 97.9801 117.0471 0032814 215.1848 144.7187 14.63116476236896
AlSat 1N
1 41789U 16059G 21063.69182868 .00000118 00000-0 31035-4 0 9996
2 41789 97.9841 120.7476 0027887 199.4139 160.5997 14.64393593237112
ScatSat
1 41790U 16059H 21063.87902265 .00000034 00000-0 20083-4 0 9997
2 41790 98.3834 106.2528 0004834 185.8402 174.2728 14.50798021234983
TY-1
1 41844U 16066D 21063.78315023 .00001518 00000-0 62680-4 0 9992
2 41844 97.4020 75.0870 0015917 141.6443 334.6460 15.25471444239948
Pegasus-1
1 41846U 16066F 21063.13154726 .00000498 00000-0 85127-4 0 9991
2 41846 98.6255 121.4330 0366477 179.3016 180.8761 14.37956143226288
CAS-2T
1 41847U 16066G 21063.69933324 .00000180 00000-0 37115-4 0 9994
2 41847 98.6166 122.3271 0365667 172.8617 187.7985 14.38153954226823
EO-88
1 42017U 17008BX 21063.44781592 .00003872 00000-0 14610-3 0 9997
2 42017 97.3275 132.9074 0007654 116.0382 244.1647 15.27605142225222
CAS-4B
1 42759U 17034B 21063.78814811 .00000526 00000-0 45101-4 0 9990
2 42759 43.0177 36.4440 0009924 236.8702 194.3519 15.10095326205320
CAS-4A
1 42761U 17034D 21063.78468964 .00000509 00000-0 43994-4 0 9996
2 42761 43.0181 35.5931 0010591 237.3905 192.8920 15.10176200205326
UCLSat
1 42765U 17036A 21063.18494852 .00002968 00000-0 12376-3 0 9991
2 42765 97.2650 116.0190 0010976 180.8303 179.2919 15.24404583206135
NIUSat
1 42766U 17036B 21063.35929086 .00002015 00000-0 89988-4 0 9990
2 42766 97.2655 112.9203 0015184 179.5993 180.5258 15.22385331205224
LituanicaSAT 2
1 42768U 17036D 21063.42127422 .00005436 00000-0 21661-3 0 9997
2 42768 97.2719 116.7445 0014492 170.9594 189.1908 15.25528725205451
Aalto 1
1 42775U 17036L 21063.13338466 .00001675 00000-0 75327-4 0 9995
2 42775 97.2628 112.9964 0013619 178.7840 181.3433 15.22392854205177
URSA MAIOR
1 42776U 17036M 21063.81033130 .00001684 00000-0 75163-4 0 9999
2 42776 97.2641 114.0587 0013518 175.8696 184.2655 15.22632783205291
Max Valier Sat
1 42778U 17036P 21063.80259746 .00001726 00000-0 75597-4 0 9991
2 42778 97.2703 115.7830 0012112 177.3080 182.8224 15.23268603205354
Pegasus
1 42784U 17036V 21063.79316283 .00002363 00000-0 10022-3 0 9995
2 42784 97.2656 116.1856 0011565 180.6697 179.4528 15.24018739205413
NUDATSat
1 42787U 17036Y 21063.59716723 .00003334 00000-0 13331-3 0 9994
2 42787 97.2700 118.0701 0010612 173.7674 186.3701 15.25733290205345
SUCHAI 1
1 42788U 17036Z 21063.38427770 .00003191 00000-0 13160-3 0 9994
2 42788 97.2666 116.6470 0011127 179.1149 181.0110 15.24722354205471
SKCUBE
1 42789U 17036AA 21063.39650747 .00002895 00000-0 12046-3 0 9990
2 42789 97.2660 116.4189 0011003 179.6075 180.5174 15.24496187205383
VZLUSAT 1
1 42790U 17036AB 21063.39299091 .00003994 00000-0 15926-3 0 9994
2 42790 97.2690 117.8622 0010574 175.3505 184.7833 15.25712676205460
VENTA 1
1 42791U 17036AC 21063.30909305 .00002871 00000-0 11960-3 0 9999
2 42791 97.2657 116.3589 0010682 180.1417 179.9819 15.24461481205369
Robusta 1B
1 42792U 17036AD 21063.77499950 .00002796 00000-0 11565-3 0 9998
2 42792 97.2663 117.1256 0010643 178.0277 182.1005 15.24721185205479
D-SAT
1 42794U 17036AF 21063.50116963 .00000379 00000-0 38102-4 0 9993
2 42794 97.4712 88.9219 0124891 216.0682 143.2065 14.91469481201411
